User: anonymous   Login
Location: Brno
(49.2000°N, 16.6330°E)
Time: 11:53:51
(UTC+01:00)
Language:

BREEZE M DEB (TANK) - Orbit

View from above orbital plane
View from above orbital plane
View from above satellite
View from above satellite

Ground track
Ground track

The orbit data is extracted from the following two-line orbital elements,

1 28359U 04022B   15027.87350531  .00006496  00000-0  84592-3 0  3341
2 28359 049.5235 192.9683 4705314 210.3610 341.4806 06.13130158231462
Epoch (UTC): 27 January 2015 20:57:50
Eccentricity: 0.4705314
inclination: 49.5235°
perigee height: 298 km
apogee height: 12164 km
right ascension of ascending node: 192.9683°
argument of perigee: 210.3610°
revolutions per day: 6.13130158
mean anomaly at epoch: 341.4806°
orbit number at epoch: 23146

The dashed part of the orbit path shows where the satellite is in the earth's shadow,  

DLR